Terug naar catalogus

STARLINK-2096

ActiefCommunicatieVLEO
NORAD 47376·PAYLOAD·🇺🇸 United States

Gelanceerd Jan 20, 2021 vanaf Cape Canaveral Space Force Station

Loading…

Volgende Passages (komende 24 uur)

TLE

VersSource: CelesTrak SupGP

Epoch: Sep 14, 2026, 21:31 UTC

1 47376C 21005AD  26257.89701389  .00046686  00000+0  15019-2 0  2576
2 47376  53.1582 262.0038 0001264  97.9331  27.2001 15.31666579    11

Volg STARLINK-2096 in realtime met AllMySat

Download on the App Store